Year,Month,Day,Hour,Minute,Value (Times are PST for temperature in C)
2016,04,20,00,00,13.90
2016,04,20,00,01,13.90
2016,04,20,00,02,13.90
2016,04,20,00,03,13.90
2016,04,20,00,04,13.90
2016,04,20,00,05,13.90
2016,04,20,00,06,13.90
2016,04,20,00,07,13.90
2016,04,20,00,08,13.90
2016,04,20,00,09,13.90
2016,04,20,00,10,13.90
2016,04,20,00,11,13.90
2016,04,20,00,12,13.90
2016,04,20,00,13,13.80
2016,04,20,00,14,13.80
2016,04,20,00,15,13.80
2016,04,20,00,16,13.80
2016,04,20,00,17,13.80
2016,04,20,00,18,13.90
2016,04,20,00,19,13.90
2016,04,20,00,20,13.90
2016,04,20,00,21,13.90
2016,04,20,00,22,13.90
2016,04,20,00,23,13.90
2016,04,20,00,24,13.90
2016,04,20,00,25,13.90
2016,04,20,00,26,13.90
2016,04,20,00,27,13.90
2016,04,20,00,28,13.90
2016,04,20,00,29,13.90
2016,04,20,00,30,13.90
2016,04,20,00,31,13.80
2016,04,20,00,32,13.80
2016,04,20,00,33,13.80
2016,04,20,00,34,13.80
2016,04,20,00,35,13.80
2016,04,20,00,36,13.80
2016,04,20,00,37,13.70
2016,04,20,00,38,13.70
2016,04,20,00,39,13.70
2016,04,20,00,40,13.70
2016,04,20,00,41,13.70
2016,04,20,00,42,13.70
2016,04,20,00,43,13.60
2016,04,20,00,44,13.60
2016,04,20,00,45,13.60
2016,04,20,00,46,13.60
2016,04,20,00,47,13.50
2016,04,20,00,48,13.50
2016,04,20,00,49,13.50
2016,04,20,00,50,13.50
2016,04,20,00,51,13.40
2016,04,20,00,52,13.40
2016,04,20,00,53,13.40
2016,04,20,00,54,13.40
2016,04,20,00,55,13.40
2016,04,20,00,56,13.40
2016,04,20,00,57,13.30
2016,04,20,00,58,13.30
2016,04,20,00,59,13.30
2016,04,20,01,00,13.30
2016,04,20,01,01,13.30
2016,04,20,01,02,13.30
2016,04,20,01,03,13.30
2016,04,20,01,04,13.30
2016,04,20,01,05,13.30
2016,04,20,01,06,13.30
2016,04,20,01,07,13.30
2016,04,20,01,08,13.20
2016,04,20,01,09,13.20
2016,04,20,01,10,13.20
2016,04,20,01,11,13.20
2016,04,20,01,12,13.20
2016,04,20,01,13,13.10
2016,04,20,01,14,13.10
2016,04,20,01,15,13.10
2016,04,20,01,16,13.10
2016,04,20,01,17,13.00
2016,04,20,01,18,13.00
2016,04,20,01,19,13.00
2016,04,20,01,20,13.00
2016,04,20,01,21,13.00
2016,04,20,01,22,12.90
2016,04,20,01,23,12.90
2016,04,20,01,24,12.90
2016,04,20,01,25,12.90
2016,04,20,01,26,12.90
2016,04,20,01,27,12.90
2016,04,20,01,28,12.90
2016,04,20,01,29,12.90
2016,04,20,01,30,12.90
2016,04,20,01,31,12.90
2016,04,20,01,32,12.90
2016,04,20,01,33,12.90
2016,04,20,01,34,12.90
2016,04,20,01,35,12.90
2016,04,20,01,36,12.90
2016,04,20,01,37,12.90
2016,04,20,01,38,12.90
2016,04,20,01,39,12.80
2016,04,20,01,40,12.80
2016,04,20,01,41,12.80
2016,04,20,01,42,12.80
2016,04,20,01,43,12.80
2016,04,20,01,44,12.80
2016,04,20,01,45,12.80
2016,04,20,01,46,12.70
2016,04,20,01,47,12.70
2016,04,20,01,48,12.70
2016,04,20,01,49,12.70
2016,04,20,01,50,12.60
2016,04,20,01,51,12.60
2016,04,20,01,52,12.60
2016,04,20,01,53,12.50
2016,04,20,01,54,12.50
2016,04,20,01,55,12.40
2016,04,20,01,56,12.40
2016,04,20,01,57,12.40
2016,04,20,01,58,12.30
2016,04,20,01,59,12.30
2016,04,20,02,00,12.30
2016,04,20,02,01,12.30
2016,04,20,02,02,12.30
2016,04,20,02,03,12.30
2016,04,20,02,04,12.30
2016,04,20,02,05,12.20
2016,04,20,02,06,12.20
2016,04,20,02,07,12.20
2016,04,20,02,08,12.20
2016,04,20,02,09,12.20
2016,04,20,02,10,12.20
2016,04,20,02,11,12.10
2016,04,20,02,12,12.10
2016,04,20,02,13,12.10
2016,04,20,02,14,12.10
2016,04,20,02,15,12.10
2016,04,20,02,16,12.10
2016,04,20,02,17,12.10
2016,04,20,02,18,12.10
2016,04,20,02,19,12.10
2016,04,20,02,20,12.10
2016,04,20,02,21,12.10
2016,04,20,02,22,12.10
2016,04,20,02,23,12.10
2016,04,20,02,24,12.10
2016,04,20,02,25,12.10
2016,04,20,02,26,12.10
2016,04,20,02,27,12.10
2016,04,20,02,28,12.10
2016,04,20,02,29,12.10
2016,04,20,02,30,12.10
2016,04,20,02,31,12.10
2016,04,20,02,32,12.10
2016,04,20,02,33,12.00
2016,04,20,02,34,12.00
2016,04,20,02,35,12.00
2016,04,20,02,36,12.00
2016,04,20,02,37,12.00
2016,04,20,02,38,12.00
2016,04,20,02,39,12.00
2016,04,20,02,40,12.00
2016,04,20,02,41,12.00
2016,04,20,02,42,12.00
2016,04,20,02,43,12.00
2016,04,20,02,44,11.90
2016,04,20,02,45,11.90
2016,04,20,02,46,11.90
2016,04,20,02,47,11.90
2016,04,20,02,48,11.90
2016,04,20,02,49,11.90
2016,04,20,02,50,11.90
2016,04,20,02,51,11.90
2016,04,20,02,52,11.90
2016,04,20,02,53,11.90
2016,04,20,02,54,11.80
2016,04,20,02,55,11.80
2016,04,20,02,56,11.80
2016,04,20,02,57,11.80
2016,04,20,02,58,11.80
2016,04,20,02,59,11.80
2016,04,20,03,00,11.80
2016,04,20,03,01,11.80
2016,04,20,03,02,11.80
2016,04,20,03,03,11.80
2016,04,20,03,04,11.80
2016,04,20,03,05,11.80
2016,04,20,03,06,11.80
2016,04,20,03,07,11.70
2016,04,20,03,08,11.70
2016,04,20,03,09,11.70
2016,04,20,03,10,11.70
2016,04,20,03,11,11.70
2016,04,20,03,12,11.70
2016,04,20,03,13,11.70
2016,04,20,03,14,11.60
2016,04,20,03,15,11.60
2016,04,20,03,16,11.60
2016,04,20,03,17,11.60
2016,04,20,03,18,11.60
2016,04,20,03,19,11.60
2016,04,20,03,20,11.50
2016,04,20,03,21,11.50
2016,04,20,03,22,11.50
2016,04,20,03,23,11.40
2016,04,20,03,24,11.40
2016,04,20,03,25,11.40
2016,04,20,03,26,11.40
2016,04,20,03,27,11.30
2016,04,20,03,28,11.30
2016,04,20,03,29,11.30
2016,04,20,03,30,11.30
2016,04,20,03,31,11.30
2016,04,20,03,32,11.30
2016,04,20,03,33,11.30
2016,04,20,03,34,11.30
2016,04,20,03,35,11.30
2016,04,20,03,36,11.30
2016,04,20,03,37,11.30
2016,04,20,03,38,11.30
2016,04,20,03,39,11.30
2016,04,20,03,40,11.30
2016,04,20,03,41,11.30
2016,04,20,03,42,11.30
2016,04,20,03,43,11.30
2016,04,20,03,44,11.30
2016,04,20,03,45,11.30
2016,04,20,03,46,11.30
2016,04,20,03,47,11.30
2016,04,20,03,48,11.30
2016,04,20,03,49,11.20
2016,04,20,03,50,11.20
2016,04,20,03,51,11.20
2016,04,20,03,52,11.20
2016,04,20,03,53,11.20
2016,04,20,03,54,11.20
2016,04,20,03,55,11.20
2016,04,20,03,56,11.20
2016,04,20,03,57,11.10
2016,04,20,03,58,11.10
2016,04,20,03,59,11.10
2016,04,20,04,00,11.10
2016,04,20,04,01,11.10
2016,04,20,04,02,11.10
2016,04,20,04,03,11.10
2016,04,20,04,04,11.10
2016,04,20,04,05,11.00
2016,04,20,04,06,11.00
2016,04,20,04,07,11.00
2016,04,20,04,08,11.00
2016,04,20,04,09,10.90
2016,04,20,04,10,10.90
2016,04,20,04,11,10.90
2016,04,20,04,12,10.90
2016,04,20,04,13,10.90
2016,04,20,04,14,10.90
2016,04,20,04,15,10.90
2016,04,20,04,16,10.90
2016,04,20,04,17,10.90
2016,04,20,04,18,10.90
2016,04,20,04,19,10.90
2016,04,20,04,20,10.90
2016,04,20,04,21,10.80
2016,04,20,04,22,10.80
2016,04,20,04,23,10.80
2016,04,20,04,24,10.80
2016,04,20,04,25,10.80
2016,04,20,04,26,10.80
2016,04,20,04,27,10.80
2016,04,20,04,28,10.80
2016,04,20,04,29,10.70
2016,04,20,04,30,10.70
2016,04,20,04,31,10.70
2016,04,20,04,32,10.70
2016,04,20,04,33,10.60
2016,04,20,04,34,10.60
2016,04,20,04,35,10.60
2016,04,20,04,36,10.50
2016,04,20,04,37,10.50
2016,04,20,04,38,10.50
2016,04,20,04,39,10.50
2016,04,20,04,40,10.50
2016,04,20,04,41,10.50
2016,04,20,04,42,10.50
2016,04,20,04,43,10.50
2016,04,20,04,44,10.40
2016,04,20,04,45,10.40
2016,04,20,04,46,10.40
2016,04,20,04,47,10.40
2016,04,20,04,48,10.40
2016,04,20,04,49,10.40
2016,04,20,04,50,10.40
2016,04,20,04,51,10.40
2016,04,20,04,52,10.40
2016,04,20,04,53,10.40
2016,04,20,04,54,10.40
2016,04,20,04,55,10.30
2016,04,20,04,56,10.30
2016,04,20,04,57,10.30
2016,04,20,04,58,10.30
2016,04,20,04,59,10.30
2016,04,20,05,00,10.30
2016,04,20,05,01,10.30
2016,04,20,05,02,10.30
2016,04,20,05,03,10.30
2016,04,20,05,04,10.30
2016,04,20,05,05,10.30
2016,04,20,05,06,10.30
2016,04,20,05,07,10.30
2016,04,20,05,08,10.40
2016,04,20,05,09,10.40
2016,04,20,05,10,10.30
2016,04,20,05,11,10.30
2016,04,20,05,12,10.30
2016,04,20,05,13,10.30
2016,04,20,05,14,10.30
2016,04,20,05,15,10.30
2016,04,20,05,16,10.30
2016,04,20,05,17,10.30
2016,04,20,05,18,10.40
2016,04,20,05,19,10.40
2016,04,20,05,20,10.40
2016,04,20,05,21,10.40
2016,04,20,05,22,10.40
2016,04,20,05,23,10.40
2016,04,20,05,24,10.40
2016,04,20,05,25,10.40
2016,04,20,05,26,10.40
2016,04,20,05,27,10.40
2016,04,20,05,28,10.40
2016,04,20,05,29,10.40
2016,04,20,05,30,10.40
2016,04,20,05,31,10.40
2016,04,20,05,32,10.40
2016,04,20,05,33,10.40
2016,04,20,05,34,10.40
2016,04,20,05,35,10.40
2016,04,20,05,36,10.40
2016,04,20,05,37,10.40
2016,04,20,05,38,10.40
2016,04,20,05,39,10.40
2016,04,20,05,40,10.40
2016,04,20,05,41,10.40
2016,04,20,05,42,10.40
2016,04,20,05,43,10.40
2016,04,20,05,44,10.40
2016,04,20,05,45,10.40
2016,04,20,05,46,10.40
2016,04,20,05,47,10.40
2016,04,20,05,48,10.30
2016,04,20,05,49,10.40
2016,04,20,05,50,10.40
2016,04,20,05,51,10.40
2016,04,20,05,52,10.40
2016,04,20,05,53,10.40
2016,04,20,05,54,10.40
2016,04,20,05,55,10.40
2016,04,20,05,56,10.40
2016,04,20,05,57,10.40
2016,04,20,05,58,10.40
2016,04,20,05,59,10.40
2016,04,20,06,00,10.40
2016,04,20,06,01,10.40
2016,04,20,06,02,10.40
2016,04,20,06,03,10.40
2016,04,20,06,04,10.40
2016,04,20,06,05,10.40
2016,04,20,06,06,10.40
2016,04,20,06,07,10.40
2016,04,20,06,08,10.40
2016,04,20,06,09,10.40
2016,04,20,06,10,10.40
2016,04,20,06,11,10.50
2016,04,20,06,12,10.50
2016,04,20,06,13,10.60
2016,04,20,06,14,10.60
2016,04,20,06,15,10.60
2016,04,20,06,16,10.60
2016,04,20,06,17,10.60
2016,04,20,06,18,10.50
2016,04,20,06,19,10.60
2016,04,20,06,20,10.60
2016,04,20,06,21,10.60
2016,04,20,06,22,10.60
2016,04,20,06,23,10.60
2016,04,20,06,24,10.60
2016,04,20,06,25,10.60
2016,04,20,06,26,10.60
2016,04,20,06,27,10.60
2016,04,20,06,28,10.50
2016,04,20,06,29,10.50
2016,04,20,06,30,10.50
2016,04,20,06,31,10.50
2016,04,20,06,32,10.50
2016,04,20,06,33,10.60
2016,04,20,06,34,10.60
2016,04,20,06,35,10.70
2016,04,20,06,36,10.70
2016,04,20,06,37,10.70
2016,04,20,06,38,10.70
2016,04,20,06,39,10.70
2016,04,20,06,40,10.70
2016,04,20,06,41,10.80
2016,04,20,06,42,10.80
2016,04,20,06,43,10.80
2016,04,20,06,44,10.80
2016,04,20,06,45,10.80
2016,04,20,06,46,10.80
2016,04,20,06,47,10.90
2016,04,20,06,48,10.90
2016,04,20,06,49,10.90
2016,04,20,06,50,10.90
2016,04,20,06,51,10.90
2016,04,20,06,52,11.00
2016,04,20,06,53,11.00
2016,04,20,06,54,11.10
2016,04,20,06,55,11.10
2016,04,20,06,56,11.10
2016,04,20,06,57,11.20
2016,04,20,06,58,11.20
2016,04,20,06,59,11.30
2016,04,20,07,00,11.30
2016,04,20,07,01,11.40
2016,04,20,07,02,11.50
2016,04,20,07,03,11.50
2016,04,20,07,04,11.60
2016,04,20,07,05,11.60
2016,04,20,07,06,11.70
2016,04,20,07,07,11.70
2016,04,20,07,08,11.70
2016,04,20,07,09,11.80
2016,04,20,07,10,11.90
2016,04,20,07,11,12.00
2016,04,20,07,12,12.10
2016,04,20,07,13,12.20
2016,04,20,07,14,12.20
2016,04,20,07,15,12.30
2016,04,20,07,16,12.30
2016,04,20,07,17,12.30
2016,04,20,07,18,12.40
2016,04,20,07,19,12.40
2016,04,20,07,20,12.40
2016,04,20,07,21,12.40
2016,04,20,07,22,12.40
2016,04,20,07,23,12.50
2016,04,20,07,24,12.50
2016,04,20,07,25,12.60
2016,04,20,07,26,12.60
2016,04,20,07,27,12.70
2016,04,20,07,28,12.70
2016,04,20,07,29,12.80
2016,04,20,07,30,12.80
2016,04,20,07,31,12.90
2016,04,20,07,32,12.90
2016,04,20,07,33,13.00
2016,04,20,07,34,13.10
2016,04,20,07,35,13.20
2016,04,20,07,36,13.30
2016,04,20,07,37,13.40
2016,04,20,07,38,13.50
2016,04,20,07,39,13.70
2016,04,20,07,40,14.00
2016,04,20,07,41,14.20
2016,04,20,07,42,14.40
2016,04,20,07,43,14.60
2016,04,20,07,44,14.70
2016,04,20,07,45,14.80
2016,04,20,07,46,14.90
2016,04,20,07,47,15.00
2016,04,20,07,48,15.00
2016,04,20,07,49,15.10
2016,04,20,07,50,15.20
2016,04,20,07,51,15.40
2016,04,20,07,52,15.50
2016,04,20,07,53,15.60
2016,04,20,07,54,15.70
2016,04,20,07,55,15.90
2016,04,20,07,56,16.00
2016,04,20,07,57,16.20
2016,04,20,07,58,16.20
2016,04,20,07,59,16.20
2016,04,20,08,00,16.20
2016,04,20,08,01,16.10
2016,04,20,08,02,16.10
2016,04,20,08,03,16.10
2016,04,20,08,04,16.10
2016,04,20,08,05,16.10
2016,04,20,08,06,16.10
2016,04,20,08,07,16.10
2016,04,20,08,08,16.10
2016,04,20,08,09,16.10
2016,04,20,08,10,16.10
2016,04,20,08,11,16.20
2016,04,20,08,12,16.30
2016,04,20,08,13,16.40
2016,04,20,08,14,16.40
2016,04,20,08,15,16.50
2016,04,20,08,16,16.60
2016,04,20,08,17,16.60
2016,04,20,08,18,16.60
2016,04,20,08,19,16.70
2016,04,20,08,20,16.80
2016,04,20,08,21,16.90
2016,04,20,08,22,16.90
2016,04,20,08,23,17.00
2016,04,20,08,24,17.10
2016,04,20,08,25,17.20
2016,04,20,08,26,17.30
2016,04,20,08,27,17.40
2016,04,20,08,28,17.50
2016,04,20,08,29,17.60
2016,04,20,08,30,17.70
2016,04,20,08,31,17.90
2016,04,20,08,32,18.00
2016,04,20,08,33,18.20
2016,04,20,08,34,18.30
2016,04,20,08,35,18.40
2016,04,20,08,36,18.40
2016,04,20,08,37,18.40
2016,04,20,08,38,18.50
2016,04,20,08,39,18.50
2016,04,20,08,40,18.50
2016,04,20,08,41,18.60
2016,04,20,08,42,18.60
2016,04,20,08,43,18.70
2016,04,20,08,44,18.80
2016,04,20,08,45,18.80
2016,04,20,08,46,18.90
2016,04,20,08,47,18.90
2016,04,20,08,48,18.90
2016,04,20,08,49,19.00
2016,04,20,08,50,19.00
2016,04,20,08,51,19.00
2016,04,20,08,52,19.10
2016,04,20,08,53,19.20
2016,04,20,08,54,19.20
2016,04,20,08,55,19.30
2016,04,20,08,56,19.30
2016,04,20,08,57,19.30
2016,04,20,08,58,19.40
2016,04,20,08,59,19.40
2016,04,20,09,00,19.40
2016,04,20,09,01,19.40
2016,04,20,09,02,19.40
2016,04,20,09,03,19.40
2016,04,20,09,04,19.40
2016,04,20,09,05,19.40
2016,04,20,09,06,19.40
2016,04,20,09,07,19.40
2016,04,20,09,08,19.40
2016,04,20,09,09,19.40
2016,04,20,09,10,19.50
2016,04,20,09,11,19.60
2016,04,20,09,12,19.60
2016,04,20,09,13,19.60
2016,04,20,09,14,19.70
2016,04,20,09,15,19.70
2016,04,20,09,16,19.70
2016,04,20,09,17,19.80
2016,04,20,09,18,19.80
2016,04,20,09,19,19.90
2016,04,20,09,20,20.00
2016,04,20,09,21,20.00
2016,04,20,09,22,20.00
2016,04,20,09,23,20.10
2016,04,20,09,24,20.00
2016,04,20,09,25,20.00
2016,04,20,09,26,20.00
2016,04,20,09,27,20.00
2016,04,20,09,28,19.90
2016,04,20,09,29,19.90
2016,04,20,09,30,20.00
2016,04,20,09,31,20.10
2016,04,20,09,32,20.10
2016,04,20,09,33,20.10
2016,04,20,09,34,20.10
2016,04,20,09,35,20.10
2016,04,20,09,36,20.10
2016,04,20,09,37,20.10
2016,04,20,09,38,20.10
2016,04,20,09,39,20.10
2016,04,20,09,40,20.20
2016,04,20,09,41,20.20
2016,04,20,09,42,20.20
2016,04,20,09,43,20.20
2016,04,20,09,44,20.30
2016,04,20,09,45,20.30
2016,04,20,09,46,20.40
2016,04,20,09,47,20.40
2016,04,20,09,48,20.40
2016,04,20,09,49,20.40
2016,04,20,09,50,20.50
2016,04,20,09,51,20.60
2016,04,20,09,52,20.70
2016,04,20,09,53,20.70
2016,04,20,09,54,20.80
2016,04,20,09,55,20.80
2016,04,20,09,56,20.80
2016,04,20,09,57,20.90
2016,04,20,09,58,20.90
2016,04,20,09,59,20.90
2016,04,20,10,00,20.90
2016,04,20,10,01,20.90
2016,04,20,10,02,20.90
2016,04,20,10,03,21.00
2016,04,20,10,04,21.00
2016,04,20,10,05,21.00
2016,04,20,10,06,21.00
2016,04,20,10,07,21.00
2016,04,20,10,08,21.10
2016,04,20,10,09,21.00
2016,04,20,10,10,20.90
2016,04,20,10,11,20.90
2016,04,20,10,12,21.00
2016,04,20,10,13,21.10
2016,04,20,10,14,21.10
2016,04,20,10,15,21.20
2016,04,20,10,16,21.20
2016,04,20,10,17,21.20
2016,04,20,10,18,21.20
2016,04,20,10,19,21.30
2016,04,20,10,20,21.30
2016,04,20,10,21,21.40
2016,04,20,10,22,21.40
2016,04,20,10,23,21.50
2016,04,20,10,24,21.60
2016,04,20,10,25,21.70
2016,04,20,10,26,21.90
2016,04,20,10,27,21.90
2016,04,20,10,28,21.90
2016,04,20,10,29,21.90
2016,04,20,10,30,22.10
2016,04,20,10,31,22.20
2016,04,20,10,32,22.30
2016,04,20,10,33,22.30
2016,04,20,10,34,22.40
2016,04,20,10,35,22.50
2016,04,20,10,36,22.60
2016,04,20,10,37,22.60
2016,04,20,10,38,22.70
2016,04,20,10,39,22.70
2016,04,20,10,40,22.80
2016,04,20,10,41,22.80
2016,04,20,10,42,22.80
2016,04,20,10,43,22.80
2016,04,20,10,44,22.90
2016,04,20,10,45,22.90
2016,04,20,10,46,23.00
2016,04,20,10,47,23.00
2016,04,20,10,48,23.10
2016,04,20,10,49,23.10
2016,04,20,10,50,23.10
2016,04,20,10,51,23.10
2016,04,20,10,52,23.00
2016,04,20,10,53,23.00
2016,04,20,10,54,23.10
2016,04,20,10,55,23.20
2016,04,20,10,56,23.20
2016,04,20,10,57,23.20
2016,04,20,10,58,23.20
2016,04,20,10,59,23.20
2016,04,20,11,00,23.20
2016,04,20,11,01,23.20
2016,04,20,11,02,23.20
2016,04,20,11,03,23.20
2016,04,20,11,04,23.10
2016,04,20,11,05,23.10
2016,04,20,11,06,23.10
2016,04,20,11,07,23.10
2016,04,20,11,08,23.10
2016,04,20,11,09,23.10
2016,04,20,11,10,23.10
2016,04,20,11,11,23.10
2016,04,20,11,12,23.10
2016,04,20,11,13,23.10
2016,04,20,11,14,23.10
2016,04,20,11,15,23.10
2016,04,20,11,16,23.10
2016,04,20,11,17,23.10
2016,04,20,11,18,23.10
2016,04,20,11,19,23.00
2016,04,20,11,20,22.90
2016,04,20,11,21,22.80
2016,04,20,11,22,22.80
2016,04,20,11,23,22.80
2016,04,20,11,24,22.80
2016,04,20,11,25,22.80
2016,04,20,11,26,22.80
2016,04,20,11,27,22.90
2016,04,20,11,28,22.90
2016,04,20,11,29,23.00
2016,04,20,11,30,23.10
2016,04,20,11,31,23.10
2016,04,20,11,32,23.20
2016,04,20,11,33,23.00
2016,04,20,11,34,22.90
2016,04,20,11,35,22.80
2016,04,20,11,36,22.70
2016,04,20,11,37,22.60
2016,04,20,11,38,22.50
2016,04,20,11,39,22.50
2016,04,20,11,40,22.60
2016,04,20,11,41,22.60
2016,04,20,11,42,22.70
2016,04,20,11,43,22.70
2016,04,20,11,44,22.80
2016,04,20,11,45,22.70
2016,04,20,11,46,22.60
2016,04,20,11,47,22.40
2016,04,20,11,48,22.20
2016,04,20,11,49,22.10
2016,04,20,11,50,22.00
2016,04,20,11,51,22.00
2016,04,20,11,52,22.00
2016,04,20,11,53,22.10
2016,04,20,11,54,22.00
2016,04,20,11,55,22.00
2016,04,20,11,56,22.10
2016,04,20,11,57,22.10
2016,04,20,11,58,22.10
2016,04,20,11,59,22.20
2016,04,20,12,00,22.30
2016,04,20,12,01,22.40
2016,04,20,12,02,22.40
2016,04,20,12,03,22.30
2016,04,20,12,04,22.40
2016,04,20,12,05,22.40
2016,04,20,12,06,22.40
2016,04,20,12,07,22.40
2016,04,20,12,08,22.50
2016,04,20,12,09,22.40
2016,04,20,12,10,22.50
2016,04,20,12,11,22.60
2016,04,20,12,12,22.70
2016,04,20,12,13,22.80
2016,04,20,12,14,22.90
2016,04,20,12,15,22.90
2016,04,20,12,16,23.00
2016,04,20,12,17,23.10
2016,04,20,12,18,23.20
2016,04,20,12,19,23.30
2016,04,20,12,20,23.50
2016,04,20,12,21,23.60
2016,04,20,12,22,23.70
2016,04,20,12,23,23.80
2016,04,20,12,24,23.70
2016,04,20,12,25,23.80
2016,04,20,12,26,23.90
2016,04,20,12,27,24.00
2016,04,20,12,28,24.10
2016,04,20,12,29,24.00
2016,04,20,12,30,23.90
2016,04,20,12,31,24.00
2016,04,20,12,32,24.10
2016,04,20,12,33,24.20
2016,04,20,12,34,24.30
2016,04,20,12,35,24.40
2016,04,20,12,36,24.40
2016,04,20,12,37,24.20
2016,04,20,12,38,24.20
2016,04,20,12,39,24.20
2016,04,20,12,40,24.20
2016,04,20,12,41,24.20
2016,04,20,12,42,24.20
2016,04,20,12,43,24.20
2016,04,20,12,44,24.10
2016,04,20,12,45,24.10
2016,04,20,12,46,24.10
2016,04,20,12,47,24.20
2016,04,20,12,48,24.20
2016,04,20,12,49,24.20
2016,04,20,12,50,24.10
2016,04,20,12,51,24.10
2016,04,20,12,52,24.00
2016,04,20,12,53,23.90
2016,04,20,12,54,23.90
2016,04,20,12,55,24.00
2016,04,20,12,56,24.00
2016,04,20,12,57,24.00
2016,04,20,12,58,24.00
2016,04,20,12,59,24.00
2016,04,20,13,00,24.10
2016,04,20,13,01,24.10
2016,04,20,13,02,24.20
2016,04,20,13,03,24.20
2016,04,20,13,04,24.40
2016,04,20,13,05,24.50
2016,04,20,13,06,24.60
2016,04,20,13,07,24.50
2016,04,20,13,08,24.40
2016,04,20,13,09,24.50
2016,04,20,13,10,24.50
2016,04,20,13,11,24.60
2016,04,20,13,12,24.70
2016,04,20,13,13,24.80
2016,04,20,13,14,24.90
2016,04,20,13,15,25.00
2016,04,20,13,16,25.00
2016,04,20,13,17,25.00
2016,04,20,13,18,24.90
2016,04,20,13,19,24.90
2016,04,20,13,20,24.80
2016,04,20,13,21,24.60
2016,04,20,13,22,24.60
2016,04,20,13,23,24.60
2016,04,20,13,24,24.60
2016,04,20,13,25,24.60
2016,04,20,13,26,24.70
2016,04,20,13,27,24.70
2016,04,20,13,28,24.80
2016,04,20,13,29,24.90
2016,04,20,13,30,24.90
2016,04,20,13,31,25.10
2016,04,20,13,32,25.20
2016,04,20,13,33,25.20
2016,04,20,13,34,25.20
2016,04,20,13,35,25.30
2016,04,20,13,36,25.50
2016,04,20,13,37,25.50
2016,04,20,13,38,25.60
2016,04,20,13,39,25.70
2016,04,20,13,40,25.80
2016,04,20,13,41,25.70
2016,04,20,13,42,25.40
2016,04,20,13,43,25.20
2016,04,20,13,44,24.90
2016,04,20,13,45,24.80
2016,04,20,13,46,24.80
2016,04,20,13,47,25.00
2016,04,20,13,48,25.10
2016,04,20,13,49,25.20
2016,04,20,13,50,25.30
2016,04,20,13,51,25.40
2016,04,20,13,52,25.40
2016,04,20,13,53,25.40
2016,04,20,13,54,25.30
2016,04,20,13,55,25.10
2016,04,20,13,56,25.10
2016,04,20,13,57,25.10
2016,04,20,13,58,25.20
2016,04,20,13,59,25.10
2016,04,20,14,00,25.10
2016,04,20,14,01,25.10
2016,04,20,14,02,25.10
2016,04,20,14,03,25.10
2016,04,20,14,04,25.10
2016,04,20,14,05,25.10
2016,04,20,14,06,25.00
2016,04,20,14,07,25.00
2016,04,20,14,08,25.00
2016,04,20,14,09,25.10
2016,04,20,14,10,25.20
2016,04,20,14,11,25.20
2016,04,20,14,12,25.20
2016,04,20,14,13,25.20
2016,04,20,14,14,25.10
2016,04,20,14,15,25.10
2016,04,20,14,16,25.20
2016,04,20,14,17,25.20
2016,04,20,14,18,25.10
2016,04,20,14,19,25.20
2016,04,20,14,20,25.20
2016,04,20,14,21,25.30
2016,04,20,14,22,25.30
2016,04,20,14,23,25.30
2016,04,20,14,24,25.30
2016,04,20,14,25,25.40
2016,04,20,14,26,25.60
2016,04,20,14,27,25.70
2016,04,20,14,28,25.80
2016,04,20,14,29,25.90
2016,04,20,14,30,25.80
2016,04,20,14,31,25.80
2016,04,20,14,32,25.80
2016,04,20,14,33,25.80
2016,04,20,14,34,25.80
2016,04,20,14,35,25.80
2016,04,20,14,36,26.00
2016,04,20,14,37,26.00
2016,04,20,14,38,26.00
2016,04,20,14,39,25.90
2016,04,20,14,40,25.80
2016,04,20,14,41,25.80
2016,04,20,14,42,25.90
2016,04,20,14,43,26.00
2016,04,20,14,44,26.10
2016,04,20,14,45,26.00
2016,04,20,14,46,25.90
2016,04,20,14,47,25.90
2016,04,20,14,48,25.90
2016,04,20,14,49,26.00
2016,04,20,14,50,26.10
2016,04,20,14,51,26.10
2016,04,20,14,52,26.30
2016,04,20,14,53,26.30
2016,04,20,14,54,26.30
2016,04,20,14,55,26.20
2016,04,20,14,56,26.30
2016,04,20,14,57,26.20
2016,04,20,14,58,26.20
2016,04,20,14,59,26.30
2016,04,20,15,00,26.40
2016,04,20,15,01,26.50
2016,04,20,15,02,26.60
2016,04,20,15,03,26.70
2016,04,20,15,04,26.80
2016,04,20,15,05,26.70
2016,04,20,15,06,26.70
2016,04,20,15,07,26.60
2016,04,20,15,08,26.40
2016,04,20,15,09,26.20
2016,04,20,15,10,26.10
2016,04,20,15,11,26.00
2016,04,20,15,12,26.10
2016,04,20,15,13,26.20
2016,04,20,15,14,26.20
2016,04,20,15,15,26.20
2016,04,20,15,16,26.20
2016,04,20,15,17,26.20
2016,04,20,15,18,26.20
2016,04,20,15,19,26.30
2016,04,20,15,20,26.50
2016,04,20,15,21,26.60
2016,04,20,15,22,26.70
2016,04,20,15,23,26.80
2016,04,20,15,24,26.90
2016,04,20,15,25,26.70
2016,04,20,15,26,26.60
2016,04,20,15,27,26.50
2016,04,20,15,28,26.40
2016,04,20,15,29,26.50
2016,04,20,15,30,26.60
2016,04,20,15,31,26.60
2016,04,20,15,32,26.70
2016,04,20,15,33,26.80
2016,04,20,15,34,26.80
2016,04,20,15,35,26.80
2016,04,20,15,36,26.70
2016,04,20,15,37,26.70
2016,04,20,15,38,26.80
2016,04,20,15,39,26.80
2016,04,20,15,40,26.90
2016,04,20,15,41,27.00
2016,04,20,15,42,27.20
2016,04,20,15,43,27.30
2016,04,20,15,44,27.40
2016,04,20,15,45,27.30
2016,04,20,15,46,27.20
2016,04,20,15,47,27.20
2016,04,20,15,48,27.20
2016,04,20,15,49,27.20
2016,04,20,15,50,27.30
2016,04,20,15,51,27.40
2016,04,20,15,52,27.40
2016,04,20,15,53,27.50
2016,04,20,15,54,27.60
2016,04,20,15,55,27.70
2016,04,20,15,56,27.90
2016,04,20,15,57,28.00
2016,04,20,15,58,28.00
2016,04,20,15,59,28.00
2016,04,20,16,00,28.00
2016,04,20,16,01,27.90
2016,04,20,16,02,27.90
2016,04,20,16,03,27.80
2016,04,20,16,04,27.70
2016,04,20,16,05,27.50
2016,04,20,16,06,27.40
2016,04,20,16,07,27.40
2016,04,20,16,08,27.40
2016,04,20,16,09,27.50
2016,04,20,16,10,27.60
2016,04,20,16,11,27.60
2016,04,20,16,12,27.50
2016,04,20,16,13,27.20
2016,04,20,16,14,26.90
2016,04,20,16,15,26.70
2016,04,20,16,16,26.50
2016,04,20,16,17,26.30
2016,04,20,16,18,26.20
2016,04,20,16,19,26.20
2016,04,20,16,20,26.20
2016,04,20,16,21,26.20
2016,04,20,16,22,26.30
2016,04,20,16,23,26.30
2016,04,20,16,24,26.20
2016,04,20,16,25,26.10
2016,04,20,16,26,25.90
2016,04,20,16,27,25.70
2016,04,20,16,28,25.60
2016,04,20,16,29,25.50
2016,04,20,16,30,25.40
2016,04,20,16,31,25.30
2016,04,20,16,32,25.20
2016,04,20,16,33,25.10
2016,04,20,16,34,25.20
2016,04,20,16,35,25.30
2016,04,20,16,36,25.30
2016,04,20,16,37,25.20
2016,04,20,16,38,25.00
2016,04,20,16,39,24.80
2016,04,20,16,40,24.50
2016,04,20,16,41,24.20
2016,04,20,16,42,24.00
2016,04,20,16,43,23.70
2016,04,20,16,44,23.40
2016,04,20,16,45,23.30
2016,04,20,16,46,23.10
2016,04,20,16,47,22.80
2016,04,20,16,48,22.20
2016,04,20,16,49,21.80
2016,04,20,16,50,21.40
2016,04,20,16,51,21.10
2016,04,20,16,52,20.90
2016,04,20,16,53,20.80
2016,04,20,16,54,20.90
2016,04,20,16,55,20.80
2016,04,20,16,56,20.70
2016,04,20,16,57,20.70
2016,04,20,16,58,20.80
2016,04,20,16,59,20.80
2016,04,20,17,00,20.80
2016,04,20,17,01,20.70
2016,04,20,17,02,20.70
2016,04,20,17,03,20.70
2016,04,20,17,04,20.70
2016,04,20,17,05,20.80
2016,04,20,17,06,20.90
2016,04,20,17,07,20.90
2016,04,20,17,08,20.90
2016,04,20,17,09,20.80
2016,04,20,17,10,20.90
2016,04,20,17,11,20.90
2016,04,20,17,12,20.90
2016,04,20,17,13,21.00
2016,04,20,17,14,21.10
2016,04,20,17,15,21.30
2016,04,20,17,16,21.40
2016,04,20,17,17,21.50
2016,04,20,17,18,21.60
2016,04,20,17,19,21.60